Regional Weather Roundup
Issued by NWS

Home | Current Version | Previous Version | Text Only | Print | Product List | Glossary Off
Versions: 1 2 3 4 5 6 7 8 9 10 11 12 13 14 15 16 17 18 19 20 21 22 23 24 25 26 27 28

000
ASUS45 KCYS 151110
RWRWY

WYOMING REGIONAL WEATHER ROUNDUP
NATIONAL WEATHER SERVICE CHEYENNE WY
500 AM MDT TUE AUG 15 2017

NOTE:  "FAIR" INDICATES FEW OR NO CLOUDS BELOW 12,000 FEET
WITH NO SIGNIFICANT WEATHER AND/OR OBSTRUCTIONS TO VISIBILITY.

WYZ001-151200-
YELLOWSTONE NATIONAL PARK

CITY           SKY/WX    TMP DP  RH WIND       PRES   REMARKS
LK YELLOWSTONE   N/A     43  42  97 CALM      30.11F
W YELLOWSTONE  NOT AVBL

$$
WYZ002>013-054>058-071-098>099-151200-
NORTHERN WYOMING

CITY           SKY/WX    TMP DP  RH WIND       PRES   REMARKS
JACKSON        CLOUDY    46  43  89 CALM      30.04F
CODY           MOCLDY    57  46  66 CALM      29.95S
GREYBULL       CLOUDY    60  56  86 W7        29.89R
WORLAND        CLOUDY    59  55  87 SW3       29.89R
SHERIDAN       CLOUDY    58  56  93 N6        29.89S
BUFFALO        CLOUDY    58  50  75 NW6       29.93S
GILLETTE       CLOUDY    59  56  89 S7        29.88F
HULETT         CLOUDY    61  57  88 W10       29.91R THUNDER
NEWCASTLE      CLOUDY    59  59 100 CALM      29.91F

$$
WYZ014>020-022>026-101>103-151200-
CENTRAL WYOMING

CITY           SKY/WX    TMP DP  RH WIND       PRES   REMARKS
BIG PINEY      MOCLDY    49  47  93 E6        30.05F
PINEDALE       CLOUDY    46  46 100 CALM      30.06S
DUBOIS         CLOUDY    50  39  66 W10       30.03F
LANDER           N/A    N/A N/A N/A MISG      29.98F
RIVERTON       RAIN      54  53  97 W12       29.98R
CASPER         MOCLDY    57  54  89 E7        29.93F
DOUGLAS        FAIR      58  56  93 NW3       29.94F

$$
WYZ021-027>030-104>119-151200-
SOUTHERN WYOMING

CITY           SKY/WX    TMP DP  RH WIND       PRES   REMARKS
EVANSTON       FAIR      49  47  93 N5        30.05S
KEMMERER         N/A     46  45  93 CALM      30.07S
FORT BRIDGER   CLOUDY    53  53 100 SE3       30.09S
ROCK SPRINGS   FAIR      50  47  89 W7        30.05S
RAWLINS        CLOUDY    56  50  80 W15G26    30.05R
SARATOGA       CLOUDY    52  52 100 NW12G18   30.05R THUNDER
LARAMIE        MOCLDY    48  45  89 S7        30.05F
CHEYENNE       FAIR      54  48  80 W9        29.97F
TORRINGTON     FAIR      59  58  96 S6        29.88F
PINE BLUFFS    FAIR      54  52  94 CALM      29.93S

$$




USA.gov is the U.S. government's official web portal to all federal, state and local government web resources and services.